"Sample Date","Sample Time","Sample Value","Units","Flow Rate","Laser Status","Micron Size 0","Counts/Channel 0","Micron Size 1","Counts/Channel 1","Micron Size 2","Counts/Channel 2","Micron Size 3","Counts/Channel 3","Micron Size 4","Counts/Channel 4","Micron Size 5","Counts/Channel 5","Micron Size 6","Counts/Channel 6","Micron Size 7","Counts/Channel 7","Micron Size 8","Counts/Channel 8","Micron Size 9","Counts/Channel 9","Micron Size 10","Counts/Channel 10","Micron Size 11","Counts/Channel 11","Micron Size 12","Counts/Channel 12","Micron Size 13","Counts/Channel 13","Micron Size 14","Counts/Channel 14","Micron Size 15","Counts/Channel 15","Micron Size 16","Counts/Channel 16","Micron Size 17","Counts/Channel 17","Micron Size 18","Counts/Channel 18","Micron Size 19","Counts/Channel 19","Micron Size 20","Counts/Channel 20","Micron Size 21","Counts/Channel 21","Micron Size 22","Counts/Channel 22","Micron Size 23","Counts/Channel 23","Micron Size 24","Counts/Channel 24","Micron Size 25","Counts/Channel 25","Micron Size 26","Counts/Channel 26","Micron Size 27","Counts/Channel 27","Micron Size 28","Counts/Channel 28","Micron Size 29","Counts/Channel 29","Micron Size 30","Counts/Channel 30","Micron Size 31","Counts/Channel 31"
"03/02/08","07:00:04",17823.000,"cc",28316.420,1,0.100,16318.000,0.200,763.000,0.300,286.000,0.500,332.000,1.000,124.000,5.000,0
"03/02/08","07:00:10",17611.000,"cc",28262.383,1,0.100,16101.000,0.200,787.000,0.300,280.000,0.500,327.000,1.000,116.000,5.000,0
"03/02/08","07:00:16",17738.000,"cc",28354.805,1,0.100,16281.000,0.200,767.000,0.300,278.000,0.500,279.000,1.000,133.000,5.000,0
"03/02/08","07:00:22",17691.000,"cc",28325.682,1,0.100,16219.000,0.200,717.000,0.300,301.000,0.500,326.000,1.000,128.000,5.000,0
"03/02/08","07:00:28",17807.000,"cc",28271.885,1,0.100,16296.000,0.200,754.000,0.300,272.000,0.500,333.000,1.000,152.000,5.000,0
"03/02/08","07:00:34",17664.000,"cc",28361.500,1,0.100,16191.000,0.200,714.000,0.300,285.000,0.500,326.000,1.000,148.000,5.000,0
"03/02/08","07:00:40",17581.000,"cc",28341.854,1,0.100,16113.000,0.200,748.000,0.300,302.000,0.500,303.000,1.000,115.000,5.000,0
"03/02/08","07:00:46",17813.000,"cc",28337.826,1,0.100,16330.000,0.200,728.000,0.300,292.000,0.500,337.000,1.000,126.000,5.000,0
"03/02/08","07:00:52",17827.000,"cc",28308.953,1,0.100,16343.000,0.200,720.000,0.300,296.000,0.500,338.000,1.000,130.000,5.000,0
"03/02/08","07:00:58",17628.000,"cc",28288.844,1,0.100,16134.000,0.200,766.000,0.300,260.000,0.500,335.000,1.000,133.000,5.000,0
"03/02/08","07:01:04",17769.000,"cc",28305.436,1,0.100,16300.000,0.200,744.000,0.300,273.000,0.500,321.000,1.000,131.000,5.000,0
"03/02/08","07:01:10",17796.000,"cc",28314.949,1,0.100,16290.000,0.200,741.000,0.300,299.000,0.500,326.000,1.000,140.000,5.000,0
"03/02/08","07:01:16",17638.000,"cc",28329.795,1,0.100,16172.000,0.200,732.000,0.300,293.000,0.500,312.000,1.000,129.000,5.000,0
"03/02/08","07:01:22",17705.000,"cc",28281.469,1,0.100,16227.000,0.200,728.000,0.300,279.000,0.500,341.000,1.000,130.000,5.000,0
"03/02/08","07:01:28",17761.000,"cc",28341.566,1,0.100,16296.000,0.200,713.000,0.300,307.000,0.500,311.000,1.000,134.000,5.000,0
"03/02/08","07:01:34",17636.000,"cc",28368.035,1,0.100,16219.000,0.200,694.000,0.300,274.000,0.500,310.000,1.000,139.000,5.000,0
"03/02/08","07:01:40",17640.000,"cc",28327.361,1,0.100,16178.000,0.200,718.000,0.300,284.000,0.500,326.000,1.000,134.000,5.000,0
"03/02/08","07:01:46",17604.000,"cc",28333.822,1,0.100,16165.000,0.200,692.000,0.300,287.000,0.500,301.000,1.000,159.000,5.000,0
"03/02/08","07:01:52",17791.000,"cc",28272.545,1,0.100,16341.000,0.200,711.000,0.300,304.000,0.500,311.000,1.000,124.000,5.000,0
"03/02/08","07:01:58",17836.000,"cc",28348.584,1,0.100,16408.000,0.200,729.000,0.300,242.000,0.500,331.000,1.000,126.000,5.000,0
"03/02/08","07:02:04",17914.000,"cc",28254.652,1,0.100,16427.000,0.200,766.000,0.300,285.000,0.500,317.000,1.000,119.000,5.000,0
"03/02/08","07:02:10",17546.000,"cc",28333.604,1,0.100,16108.000,0.200,706.000,0.300,287.000,0.500,325.000,1.000,120.000,5.000,0
"03/02/08","07:02:16",17813.000,"cc",28315.762,1,0.100,16394.000,0.200,712.000,0.300,267.000,0.500,310.000,1.000,130.000,5.000,0
"03/02/08","07:02:22",17661.000,"cc",28302.281,1,0.100,16207.000,0.200,697.000,0.300,298.000,0.500,312.000,1.000,147.000,5.000,0
"03/02/08","07:02:28",17640.000,"cc",28306.113,1,0.100,16219.000,0.200,727.000,0.300,279.000,0.500,289.000,1.000,126.000,5.000,0
"03/02/08","07:02:34",17798.000,"cc",28364.662,1,0.100,16343.000,0.200,729.000,0.300,282.000,0.500,309.000,1.000,135.000,5.000,0
"03/02/08","07:02:40",17630.000,"cc",28302.508,1,0.100,16198.000,0.200,705.000,0.300,295.000,0.500,315.000,1.000,117.000,5.000,0
"03/02/08","07:02:46",17458.000,"cc",28327.469,1,0.100,15899.000,0.200,811.000,0.300,271.000,0.500,335.000,1.000,142.000,5.000,0
"03/02/08","07:02:52",17617.000,"cc",28326.518,1,0.100,16175.000,0.200,703.000,0.300,287.000,0.500,341.000,1.000,111.000,5.000,0
"03/02/08","07:02:58",17962.000,"cc",28286.049,1,0.100,16445.000,0.200,757.000,0.300,300.000,0.500,325.000,1.000,135.000,5.000,0
"03/02/08","07:03:04",17633.000,"cc",28296.805,1,0.100,16200.000,0.200,702.000,0.300,298.000,0.500,307.000,1.000,126.000,5.000,0
"03/02/08","07:03:10",17728.000,"cc",28364.197,1,0.100,16240.000,0.200,725.000,0.300,307.000,0.500,311.000,1.000,145.000,5.000,0
"03/02/08","07:03:16",17673.000,"cc",28275.703,1,0.100,16284.000,0.200,700.000,0.300,277.000,0.500,271.000,1.000,141.000,5.000,0
"03/02/08","07:03:22",17529.000,"cc",28276.953,1,0.100,16018.000,0.200,761.000,0.300,305.000,0.500,317.000,1.000,128.000,5.000,0
"03/02/08","07:03:28",17830.000,"cc",28329.633,1,0.100,16413.000,0.200,698.000,0.300,283.000,0.500,316.000,1.000,120.000,5.000,0
"03/02/08","07:03:34",17834.000,"cc",28333.887,1,0.100,16375.000,0.200,758.000,0.300,298.000,0.500,293.000,1.000,110.000,5.000,0
"03/02/08","07:03:40",17691.000,"cc",28298.461,1,0.100,16225.000,0.200,739.000,0.300,285.000,0.500,319.000,1.000,123.000,5.000,0
"03/02/08","07:03:46",17752.000,"cc",28321.148,1,0.100,16332.000,0.200,683.000,0.300,266.000,0.500,339.000,1.000,132.000,5.000,0
"03/02/08","07:03:52",17620.000,"cc",28288.305,1,0.100,16176.000,0.200,711.000,0.300,281.000,0.500,324.000,1.000,128.000,5.000,0
"03/02/08","07:03:58",17876.000,"cc",28260.436,1,0.100,16389.000,0.200,724.000,0.300,289.000,0.500,343.000,1.000,131.000,5.000,0
"03/02/08","07:04:04",17698.000,"cc",28307.859,1,0.100,16253.000,0.200,743.000,0.300,269.000,0.500,329.000,1.000,104.000,5.000,0
"03/02/08","07:04:10",17529.000,"cc",28335.658,1,0.100,16120.000,0.200,722.000,0.300,261.000,0.500,306.000,1.000,120.000,5.000,0
"03/02/08","07:04:16",17648.000,"cc",28310.731,1,0.100,16147.000,0.200,758.000,0.300,296.000,0.500,319.000,1.000,128.000,5.000,0
"03/02/08","07:04:22",17566.000,"cc",28323.922,1,0.100,16102.000,0.200,765.000,0.300,280.000,0.500,306.000,1.000,113.000,5.000,0
"03/02/08","07:04:28",17712.000,"cc",28354.822,1,0.100,16193.000,0.200,719.000,0.300,312.000,0.500,357.000,1.000,131.000,5.000,0
"03/02/08","07:04:34",17538.000,"cc",28303.668,1,0.100,16086.000,0.200,764.000,0.300,278.000,0.500,302.000,1.000,108.000,5.000,0
"03/02/08","07:04:40",17522.000,"cc",28316.811,1,0.100,16117.000,0.200,663.000,0.300,286.000,0.500,309.000,1.000,147.000,5.000,0
"03/02/08","07:04:46",17676.000,"cc",28298.211,1,0.100,16179.000,0.200,738.000,0.300,309.000,0.500,337.000,1.000,113.000,5.000,0
"03/02/08","07:04:52",17716.000,"cc",28349.574,1,0.100,16286.000,0.200,695.000,0.300,273.000,0.500,332.000,1.000,130.000,5.000,0
"03/02/08","07:04:58",17184.000,"cc",28358.305,1,0.100,15750.000,0.200,679.000,0.300,276.000,0.500,339.000,1.000,140.000,5.000,0
"03/02/08","07:05:04",17592.000,"cc",28283.111,1,0.100,16160.000,0.200,692.000,0.300,290.000,0.500,324.000,1.000,126.000,5.000,0
"03/02/08","07:05:10",17185.000,"cc",28305.137,1,0.100,15788.000,0.200,693.000,0.300,282.000,0.500,304.000,1.000,118.000,5.000,0
"03/02/08","07:05:16",17429.000,"cc",28282.996,1,0.100,16022.000,0.200,703.000,0.300,291.000,0.500,292.000,1.000,121.000,5.000,0
"03/02/08","07:05:22",17512.000,"cc",28309.557,1,0.100,16059.000,0.200,736.000,0.300,279.000,0.500,325.000,1.000,113.000,5.000,0
"03/02/08","07:05:28",17512.000,"cc",28322.781,1,0.100,16086.000,0.200,733.000,0.300,275.000,0.500,304.000,1.000,114.000,5.000,0
"03/02/08","07:05:34",17471.000,"cc",28382.059,1,0.100,15989.000,0.200,735.000,0.300,291.000,0.500,329.000,1.000,127.000,5.000,0
"03/02/08","07:05:40",17379.000,"cc",28328.481,1,0.100,15922.000,0.200,698.000,0.300,301.000,0.500,321.000,1.000,137.000,5.000,0
"03/02/08","07:05:46",17458.000,"cc",28305.830,1,0.100,16027.000,0.200,706.000,0.300,297.000,0.500,300.000,1.000,128.000,5.000,0
"03/02/08","07:05:52",17388.000,"cc",28268.428,1,0.100,15950.000,0.200,687.000,0.300,307.000,0.500,314.000,1.000,130.000,5.000,0
"03/02/08","07:05:58",17506.000,"cc",28284.940,1,0.100,16118.000,0.200,668.000,0.300,281.000,0.500,319.000,1.000,120.000,5.000,0
"03/02/08","07:06:04",17512.000,"cc",28332.440,1,0.100,16086.000,0.200,674.000,0.300,282.000,0.500,325.000,1.000,145.000,5.000,0
"03/02/08","07:06:10",17467.000,"cc",28329.168,1,0.100,16042.000,0.200,676.000,0.300,304.000,0.500,316.000,1.000,129.000,5.000,0
"03/02/08","07:06:16",17600.000,"cc",28274.590,1,0.100,16152.000,0.200,696.000,0.300,263.000,0.500,351.000,1.000,138.000,5.000,0
"03/02/08","07:06:22",17460.000,"cc",28412.731,1,0.100,15998.000,0.200,754.000,0.300,280.000,0.500,309.000,1.000,119.000,5.000,0
"03/02/08","07:06:28",17424.000,"cc",28334.854,1,0.100,15997.000,0.200,687.000,0.300,281.000,0.500,337.000,1.000,122.000,5.000,0
"03/02/08","07:06:34",17397.000,"cc",28289.662,1,0.100,16003.000,0.200,693.000,0.300,268.000,0.500,302.000,1.000,131.000,5.000,0
"03/02/08","07:06:40",17260.000,"cc",28299.981,1,0.100,15872.000,0.200,674.000,0.300,285.000,0.500,319.000,1.000,110.000,5.000,0
"03/02/08","07:06:46",17248.000,"cc",28328.598,1,0.100,15830.000,0.200,713.000,0.300,253.000,0.500,334.000,1.000,118.000,5.000,0
"03/02/08","07:06:52",17448.000,"cc",28304.307,1,0.100,16116.000,0.200,656.000,0.300,276.000,0.500,285.000,1.000,115.000,5.000,0
"03/02/08","07:06:58",17360.000,"cc",28296.668,1,0.100,15961.000,0.200,682.000,0.300,286.000,0.500,302.000,1.000,129.000,5.000,0
"03/02/08","07:07:04",17372.000,"cc",28355.889,1,0.100,15888.000,0.200,711.000,0.300,290.000,0.500,348.000,1.000,135.000,5.000,0
"03/02/08","07:07:10",17213.000,"cc",28313.691,1,0.100,15899.000,0.200,640.000,0.300,255.000,0.500,301.000,1.000,118.000,5.000,0
"03/02/08","07:07:16",17392.000,"cc",28371.518,1,0.100,15957.000,0.200,710.000,0.300,300.000,0.500,295.000,1.000,130.000,5.000,0
"03/02/08","07:07:22",17369.000,"cc",28307.240,1,0.100,15984.000,0.200,669.000,0.300,281.000,0.500,312.000,1.000,123.000,5.000,0
"03/02/08","07:07:28",17281.000,"cc",28320.729,1,0.100,15903.000,0.200,685.000,0.300,260.000,0.500,303.000,1.000,130.000,5.000,0
"03/02/08","07:07:34",17381.000,"cc",28249.725,1,0.100,15989.000,0.200,653.000,0.300,277.000,0.500,342.000,1.000,120.000,5.000,0
"03/02/08","07:07:40",17351.000,"cc",28332.666,1,0.100,15995.000,0.200,660.000,0.300,265.000,0.500,317.000,1.000,114.000,5.000,0
"03/02/08","07:07:46",17338.000,"cc",28347.402,1,0.100,15922.000,0.200,672.000,0.300,301.000,0.500,325.000,1.000,118.000,5.000,0
"03/02/08","07:07:52",17269.000,"cc",28309.547,1,0.100,15840.000,0.200,705.000,0.300,293.000,0.500,323.000,1.000,108.000,5.000,0
"03/02/08","07:07:58",17392.000,"cc",28292.889,1,0.100,16063.000,0.200,642.000,0.300,255.000,0.500,307.000,1.000,125.000,5.000,0
"03/02/08","07:08:04",17486.000,"cc",28313.150,1,0.100,16101.000,0.200,657.000,0.300,289.000,0.500,302.000,1.000,137.000,5.000,0
"03/02/08","07:08:10",17397.000,"cc",28250.094,1,0.100,15960.000,0.200,707.000,0.300,275.000,0.500,332.000,1.000,123.000,5.000,0
"03/02/08","07:08:16",17269.000,"cc",28301.582,1,0.100,15868.000,0.200,707.000,0.300,282.000,0.500,303.000,1.000,109.000,5.000,0
"03/02/08","07:08:22",17462.000,"cc",28374.051,1,0.100,16000.000,0.200,732.000,0.300,285.000,0.500,308.000,1.000,137.000,5.000,0
"03/02/08","07:08:28",17327.000,"cc",28319.246,1,0.100,15891.000,0.200,697.000,0.300,300.000,0.500,322.000,1.000,117.000,5.000,0
"03/02/08","07:08:34",17245.000,"cc",28336.199,1,0.100,15861.000,0.200,674.000,0.300,273.000,0.500,324.000,1.000,113.000,5.000,0
"03/02/08","07:08:40",17207.000,"cc",28362.947,1,0.100,15778.000,0.200,714.000,0.300,286.000,0.500,312.000,1.000,117.000,5.000,0
"03/02/08","07:08:46",17329.000,"cc",28318.404,1,0.100,15969.000,0.200,667.000,0.300,277.000,0.500,301.000,1.000,115.000,5.000,0
"03/02/08","07:08:52",17311.000,"cc",28323.969,1,0.100,15951.000,0.200,650.000,0.300,286.000,0.500,313.000,1.000,111.000,5.000,0
"03/02/08","07:08:58",17212.000,"cc",28332.184,1,0.100,15870.000,0.200,647.000,0.300,263.000,0.500,301.000,1.000,131.000,5.000,0
"03/02/08","07:09:04",17283.000,"cc",28301.637,1,0.100,15922.000,0.200,647.000,0.300,287.000,0.500,319.000,1.000,108.000,5.000,0
"03/02/08","07:09:10",17201.000,"cc",28327.451,1,0.100,15827.000,0.200,651.000,0.300,275.000,0.500,288.000,1.000,160.000,5.000,0
"03/02/08","07:09:16",17446.000,"cc",28321.373,1,0.100,15966.000,0.200,755.000,0.300,261.000,0.500,327.000,1.000,137.000,5.000,0
"03/02/08","07:09:22",17324.000,"cc",28302.547,1,0.100,15933.000,0.200,652.000,0.300,280.000,0.500,328.000,1.000,131.000,5.000,0
"03/02/08","07:09:28",17305.000,"cc",28246.586,1,0.100,15913.000,0.200,631.000,0.300,286.000,0.500,350.000,1.000,125.000,5.000,0
"03/02/08","07:09:34",17366.000,"cc",28308.627,1,0.100,15991.000,0.200,686.000,0.300,277.000,0.500,295.000,1.000,117.000,5.000,0
"03/02/08","07:09:40",17545.000,"cc",28342.578,1,0.100,16115.000,0.200,714.000,0.300,277.000,0.500,310.000,1.000,129.000,5.000,0
"03/02/08","07:09:46",17335.000,"cc",28315.193,1,0.100,15865.000,0.200,711.000,0.300,272.000,0.500,352.000,1.000,135.000,5.000,0
"03/02/08","07:09:52",17240.000,"cc",28372.338,1,0.100,15826.000,0.200,666.000,0.300,301.000,0.500,307.000,1.000,140.000,5.000,0
"03/02/08","07:09:58",17298.000,"cc",28335.156,1,0.100,15839.000,0.200,706.000,0.300,274.000,0.500,334.000,1.000,145.000,5.000,0
"03/02/08","07:10:04",17162.000,"cc",28283.338,1,0.100,15700.000,0.200,725.000,0.300,287.000,0.500,319.000,1.000,131.000,5.000,0
"03/02/08","07:10:10",17238.000,"cc",28314.693,1,0.100,15769.000,0.200,709.000,0.300,300.000,0.500,337.000,1.000,123.000,5.000,0
"03/02/08","07:10:16",17341.000,"cc",28278.090,1,0.100,15917.000,0.200,670.000,0.300,281.000,0.500,334.000,1.000,139.000,5.000,0
"03/02/08","07:10:22",16992.000,"cc",28314.906,1,0.100,15577.000,0.200,655.000,0.300,290.000,0.500,340.000,1.000,130.000,5.000,0
"03/02/08","07:10:28",17187.000,"cc",28329.287,1,0.100,15754.000,0.200,682.000,0.300,282.000,0.500,344.000,1.000,125.000,5.000,0
"03/02/08","07:10:34",17164.000,"cc",28300.648,1,0.100,15759.000,0.200,660.000,0.300,296.000,0.500,317.000,1.000,132.000,5.000,0
"03/02/08","07:10:40",17452.000,"cc",28360.272,1,0.100,16105.000,0.200,642.000,0.300,275.000,0.500,303.000,1.000,127.000,5.000,0
"03/02/08","07:10:46",17094.000,"cc",28328.885,1,0.100,15721.000,0.200,661.000,0.300,257.000,0.500,323.000,1.000,132.000,5.000,0
"03/02/08","07:10:52",17162.000,"cc",28324.686,1,0.100,15839.000,0.200,616.000,0.300,264.000,0.500,317.000,1.000,126.000,5.000,0
"03/02/08","07:10:58",17265.000,"cc",28283.574,1,0.100,15892.000,0.200,688.000,0.300,248.000,0.500,320.000,1.000,117.000,5.000,0
"03/02/08","07:11:04",17091.000,"cc",28291.539,1,0.100,15789.000,0.200,610.000,0.300,262.000,0.500,308.000,1.000,122.000,5.000,0
"03/02/08","07:11:10",17146.000,"cc",28273.922,1,0.100,15746.000,0.200,666.000,0.300,271.000,0.500,315.000,1.000,148.000,5.000,0
"03/02/08","07:11:16",17492.000,"cc",28331.865,1,0.100,16049.000,0.200,675.000,0.300,319.000,0.500,320.000,1.000,129.000,5.000,0
"03/02/08","07:11:22",17257.000,"cc",28372.527,1,0.100,15835.000,0.200,678.000,0.300,303.000,0.500,319.000,1.000,122.000,5.000,0
"03/02/08","07:11:28",17395.000,"cc",28267.273,1,0.100,15954.000,0.200,687.000,0.300,308.000,0.500,313.000,1.000,133.000,5.000,0
"03/02/08","07:11:34",17417.000,"cc",28347.455,1,0.100,16054.000,0.200,670.000,0.300,265.000,0.500,300.000,1.000,128.000,5.000,0
"03/02/08","07:11:40",17210.000,"cc",28288.877,1,0.100,15854.000,0.200,645.000,0.300,246.000,0.500,327.000,1.000,138.000,5.000,0
"03/02/08","07:11:46",17035.000,"cc",28336.932,1,0.100,15670.000,0.200,653.000,0.300,273.000,0.500,310.000,1.000,129.000,5.000,0
"03/02/08","07:11:52",17183.000,"cc",28306.678,1,0.100,15766.000,0.200,698.000,0.300,286.000,0.500,306.000,1.000,127.000,5.000,0
"03/02/08","07:11:58",17171.000,"cc",28308.168,1,0.100,15841.000,0.200,617.000,0.300,277.000,0.500,311.000,1.000,125.000,5.000,0
"03/02/08","07:12:04",17356.000,"cc",28324.473,1,0.100,15958.000,0.200,675.000,0.300,269.000,0.500,318.000,1.000,136.000,5.000,0
"03/02/08","07:12:10",17255.000,"cc",28346.025,1,0.100,15828.000,0.200,677.000,0.300,308.000,0.500,297.000,1.000,145.000,5.000,0
"03/02/08","07:12:16",17354.000,"cc",28281.342,1,0.100,15930.000,0.200,666.000,0.300,291.000,0.500,342.000,1.000,125.000,5.000,0
"03/02/08","07:12:22",17177.000,"cc",28320.053,1,0.100,15806.000,0.200,648.000,0.300,267.000,0.500,325.000,1.000,131.000,5.000,0
"03/02/08","07:12:28",16879.000,"cc",28286.055,1,0.100,15450.000,0.200,684.000,0.300,293.000,0.500,321.000,1.000,131.000,5.000,0
"03/02/08","07:12:34",17271.000,"cc",28312.645,1,0.100,15930.000,0.200,616.000,0.300,291.000,0.500,313.000,1.000,121.000,5.000,0
"03/02/08","07:12:40",17154.000,"cc",28355.682,1,0.100,15721.000,0.200,686.000,0.300,283.000,0.500,332.000,1.000,132.000,5.000,0
"03/02/08","07:12:46",17330.000,"cc",28323.096,1,0.100,15897.000,0.200,677.000,0.300,290.000,0.500,325.000,1.000,141.000,5.000,0
"03/02/08","07:12:52",17170.000,"cc",28265.576,1,0.100,15805.000,0.200,636.000,0.300,272.000,0.500,313.000,1.000,144.000,5.000,0
"03/02/08","07:12:58",17402.000,"cc",28406.285,1,0.100,15934.000,0.200,712.000,0.300,329.000,0.500,318.000,1.000,109.000,5.000,0
"03/02/08","07:13:04",17252.000,"cc",28335.229,1,0.100,15895.000,0.200,666.000,0.300,272.000,0.500,304.000,1.000,115.000,5.000,0
"03/02/08","07:13:10",17334.000,"cc",28296.596,1,0.100,15947.000,0.200,694.000,0.300,277.000,0.500,309.000,1.000,107.000,5.000,0
"03/02/08","07:13:16",17306.000,"cc",28356.381,1,0.100,15874.000,0.200,699.000,0.300,310.000,0.500,326.000,1.000,97.000,5.000,0
"03/02/08","07:13:22",17338.000,"cc",28339.229,1,0.100,15964.000,0.200,649.000,0.300,290.000,0.500,317.000,1.000,118.000,5.000,0
"03/02/08","07:13:28",17035.000,"cc",28286.217,1,0.100,15676.000,0.200,661.000,0.300,290.000,0.500,275.000,1.000,133.000,5.000,0
"03/02/08","07:13:34",17047.000,"cc",28239.117,1,0.100,15638.000,0.200,660.000,0.300,281.000,0.500,336.000,1.000,132.000,5.000,0
"03/02/08","07:13:40",17436.000,"cc",28282.887,1,0.100,15992.000,0.200,704.000,0.300,292.000,0.500,314.000,1.000,134.000,5.000,0
"03/02/08","07:13:46",17252.000,"cc",28312.197,1,0.100,15920.000,0.200,619.000,0.300,270.000,0.500,324.000,1.000,119.000,5.000,0
"03/02/08","07:13:52",17179.000,"cc",28379.801,1,0.100,15765.000,0.200,679.000,0.300,289.000,0.500,330.000,1.000,116.000,5.000,0
"03/02/08","07:13:58",17439.000,"cc",28352.496,1,0.100,16052.000,0.200,662.000,0.300,267.000,0.500,334.000,1.000,124.000,5.000,0
"03/02/08","07:14:04",17372.000,"cc",28262.234,1,0.100,15822.000,0.200,722.000,0.300,327.000,0.500,359.000,1.000,142.000,5.000,0
"03/02/08","07:14:10",17231.000,"cc",28330.475,1,0.100,15846.000,0.200,655.000,0.300,259.000,0.500,344.000,1.000,127.000,5.000,0
"03/02/08","07:14:16",17381.000,"cc",28336.166,1,0.100,15977.000,0.200,648.000,0.300,296.000,0.500,323.000,1.000,137.000,5.000,0
"03/02/08","07:14:22",17448.000,"cc",28291.402,1,0.100,16024.000,0.200,715.000,0.300,260.000,0.500,314.000,1.000,135.000,5.000,0
"03/02/08","07:14:28",17294.000,"cc",28337.498,1,0.100,15944.000,0.200,615.000,0.300,255.000,0.500,323.000,1.000,157.000,5.000,0
"03/02/08","07:14:34",17045.000,"cc",28243.510,1,0.100,15701.000,0.200,671.000,0.300,288.000,0.500,268.000,1.000,117.000,5.000,0
"03/02/08","07:14:40",17136.000,"cc",28336.982,1,0.100,15776.000,0.200,676.000,0.300,283.000,0.500,290.000,1.000,111.000,5.000,0
"03/02/08","07:14:46",17346.000,"cc",28314.190,1,0.100,15938.000,0.200,677.000,0.300,311.000,0.500,305.000,1.000,115.000,5.000,0
"03/02/08","07:14:52",17700.000,"cc",28358.346,1,0.100,16218.000,0.200,720.000,0.300,297.000,0.500,330.000,1.000,135.000,5.000,0
"03/02/08","07:14:58",17244.000,"cc",28386.141,1,0.100,15887.000,0.200,658.000,0.300,283.000,0.500,300.000,1.000,115.000,5.000,1.000
"03/02/08","07:15:04",17344.000,"cc",28268.365,1,0.100,15916.000,0.200,706.000,0.300,260.000,0.500,319.000,1.000,143.000,5.000,0
"03/02/08","07:15:10",17275.000,"cc",28380.328,1,0.100,15855.000,0.200,681.000,0.300,279.000,0.500,314.000,1.000,146.000,5.000,0
"03/02/08","07:15:16",17308.000,"cc",28304.951,1,0.100,15910.000,0.200,660.000,0.300,289.000,0.500,317.000,1.000,132.000,5.000,0
"03/02/08","07:15:22",17417.000,"cc",28310.670,1,0.100,16039.000,0.200,640.000,0.300,311.000,0.500,298.000,1.000,129.000,5.000,0
"03/02/08","07:15:28",17342.000,"cc",28299.242,1,0.100,15938.000,0.200,678.000,0.300,279.000,0.500,312.000,1.000,135.000,5.000,0
"03/02/08","07:15:34",17342.000,"cc",28296.777,1,0.100,15947.000,0.200,679.000,0.300,279.000,0.500,315.000,1.000,122.000,5.000,0
"03/02/08","07:15:40",17032.000,"cc",28340.420,1,0.100,15708.000,0.200,640.000,0.300,259.000,0.500,293.000,1.000,132.000,5.000,0
"03/02/08","07:15:46",17498.000,"cc",28282.744,1,0.100,16142.000,0.200,656.000,0.300,290.000,0.500,290.000,1.000,120.000,5.000,0
"03/02/08","07:15:52",17337.000,"cc",28311.141,1,0.100,15928.000,0.200,685.000,0.300,280.000,0.500,305.000,1.000,139.000,5.000,0
"03/02/08","07:15:58",17316.000,"cc",28249.137,1,0.100,15961.000,0.200,638.000,0.300,283.000,0.500,291.000,1.000,143.000,5.000,0
"03/02/08","07:16:04",17399.000,"cc",28325.963,1,0.100,16040.000,0.200,635.000,0.300,287.000,0.500,306.000,1.000,131.000,5.000,0
"03/02/08","07:16:10",17165.000,"cc",28350.088,1,0.100,15788.000,0.200,655.000,0.300,277.000,0.500,318.000,1.000,127.000,5.000,0
"03/02/08","07:16:16",17238.000,"cc",28320.846,1,0.100,15807.000,0.200,688.000,0.300,292.000,0.500,323.000,1.000,128.000,5.000,0
"03/02/08","07:16:22",17523.000,"cc",28314.359,1,0.100,16170.000,0.200,646.000,0.300,289.000,0.500,291.000,1.000,127.000,5.000,0
"03/02/08","07:16:28",17594.000,"cc",28392.504,1,0.100,16193.000,0.200,675.000,0.300,291.000,0.500,302.000,1.000,133.000,5.000,0
"03/02/08","07:16:34",17689.000,"cc",28320.820,1,0.100,16261.000,0.200,691.000,0.300,288.000,0.500,320.000,1.000,129.000,5.000,0
"03/02/08","07:16:40",17352.000,"cc",28286.629,1,0.100,15971.000,0.200,647.000,0.300,273.000,0.500,342.000,1.000,119.000,5.000,0
"03/02/08","07:16:46",17523.000,"cc",28331.990,1,0.100,16112.000,0.200,664.000,0.300,296.000,0.500,328.000,1.000,123.000,5.000,0
"03/02/08","07:16:52",17427.000,"cc",28334.518,1,0.100,16027.000,0.200,678.000,0.300,314.000,0.500,287.000,1.000,121.000,5.000,0
"03/02/08","07:16:58",17492.000,"cc",28251.904,1,0.100,16045.000,0.200,688.000,0.300,284.000,0.500,327.000,1.000,148.000,5.000,0
"03/02/08","07:17:04",17347.000,"cc",28337.016,1,0.100,15963.000,0.200,684.000,0.300,250.000,0.500,320.000,1.000,130.000,5.000,0
"03/02/08","07:17:10",17346.000,"cc",28369.459,1,0.100,15993.000,0.200,677.000,0.300,256.000,0.500,295.000,1.000,125.000,5.000,0
"03/02/08","07:17:16",17401.000,"cc",28257.301,1,0.100,16030.000,0.200,675.000,0.300,283.000,0.500,296.000,1.000,117.000,5.000,0
"03/02/08","07:17:22",17376.000,"cc",28366.541,1,0.100,15945.000,0.200,703.000,0.300,279.000,0.500,312.000,1.000,137.000,5.000,0
"03/02/08","07:17:28",17272.000,"cc",28305.475,1,0.100,15888.000,0.200,658.000,0.300,279.000,0.500,319.000,1.000,128.000,5.000,0